JUGNU

Satellite information

Favourite Embed

Satellite Type and Status

PAYLOADIN ORBIT

Key statistics

Satellite JUGNU at a glance.

Uptime

5018

Days in orbit

Revolutions

≈ 14.1

Per day

Orbit

LEO

Low Earth Orbit

Inclination

20.0

Latest

Satellite identification and parameters

Extended collection of information and parameters for JUGNU.

Object identification

Identified? True

Debris? False

Object name: JUGNU

International designator: 2011-058B

Object number (NORAD): 37839

Object ID (CCSDS): 37839

Country: INDIA (IND)

Current information (Y/N): Y

RCS size: MEDIUM

Orbital parameters

Period: 101.867 minutes

Inclination: 19.9598 deg

SMA: 7225.179 km

Apoapsis: 860.354 km

Periapsis: 833.734 km

RAAN: 248.2048 deg

Eccentricy: 0.0018422

Argument of periapsis: 218.9022 deg

Mean anomaly: 275.6323 deg

Mean motion: 14.13610779 rev/day

Mean motion (dot): 0.00000394 rev/day2

B* drag term: 0.000066436 1/REarth

Two-line elements (TLE)

Creation date: July 6, 2025, 6:05 p.m.

Reference frame: TEME

Reference center: EARTH

Epoch: July 6, 2025, 12:32 p.m. UTC

TLE line 0: 0 JUGNU

TLE line 1: 1 37839U 11058B 25187.52291122 .00000394 00000-0 66436-4 0 9997

TLE line 2: 2 37839 19.9598 248.2048 0018422 218.9022 275.6323 14.13610779710052

Live tracking on map

Real-time ground track for satellite JUGNU.

In-orbit conjunctions

There are no conjunctions computed for JUGNU, at the moment. Check back to stay up to date, as we update our databases every day.

Go to all conjunctions

Associated space launch

JUGNU was lifted into orbit during the mission ‘PSLV-CA | Megha-Tropiques’, on board a PSLV space rocket.

The launch took place on Oct. 12, 2011, 5:31 a.m. from Satish Dhawan Space Centre First Launch Pad.

For more information about the launch, click the button.

Launch to space PSLV-CA | Megha-Tropiques
PSLV-CA | Megha-Tropiques

Agency: N/A

Status: Launch Successful

Launch date: Oct. 12, 2011, 5:31 a.m. UTC

Rocket: PSLV

Launch pad: Satish Dhawan Space Centre First Launch Pad

Location: Satish Dhawan Space Centre, India

...

Latest news about this satellite

There are no fresh news available about this satellite. Check back as we update our databases every day.


Newsletter sign-up

Weekly statistics, charts and insights to help you stay on top of the space industry.